Hourly Data Report for April 25, 2021

NANAIMO A
BRITISH COLUMBIA
Current Station Operator: NAVCAN

49°03'16.000" N
123°52'12.000" W
28.00 m
1025365
YCD

Download Data

Hourly Data (April 2021)
Hourly Data Report for April 25, 2021
TIME
LST
Temp Definition
°C
Dew Point Definition
°C
Rel Hum Definition
%
Precip. Amount Definition
mm

Wind Dir Definition
10's deg

Wind Spd Definition
km/h
Visibility Definition
km
Stn Press Definition
kPa
Hmdx Definition


Wind Chill Definition


Weather Definition


00:00 8.5 8.2 98 LegendMM 21 4 LegendMM 100.25     LegendNANA
01:00 7.8 7.2 96 LegendMM 24 4 LegendMM 100.25     LegendNANA
02:00 7.3 6.7 96 LegendMM 25 8 LegendMM 100.23     LegendNANA
03:00 7.0 6.2 95 LegendMM 24 5 LegendMM 100.23     LegendNANA
04:00 6.8 6.0 95 LegendMM 24 8 LegendMM 100.23     LegendNANA
05:00 6.7 6.5 98 LegendMM 23 5 LegendMM 100.23     LegendNANA
06:00 6.9 6.3 96 LegendMM 20 3 LegendMM 100.26     LegendNANA
07:00 7.5 6.8 95 LegendMM 30 1 LegendMM 100.29     LegendNANA
08:00 8.1 7.5 96 LegendMM 31 4 LegendMM 100.31     LegendNANA
09:00 8.7 8.0 95 LegendMM 12 3 LegendMM 100.32     LegendNANA
10:00 9.9 8.6 92 LegendMM 9 13 LegendMM 100.33     LegendNANA
11:00 9.6 8.2 91 LegendMM 9 14 LegendMM 100.35     LegendNANA
12:00 9.7 7.4 86 LegendMM 7 13 LegendMM 100.34     LegendNANA
13:00 10.3 7.9 85 LegendMM 9 12 LegendMM 100.34     LegendNANA
14:00 9.8 7.7 86 LegendMM 16 9 LegendMM 100.35     LegendNANA
15:00 10.8 9.2 90 LegendMM 4 6 LegendMM 100.34     LegendNANA
16:00 10.6 8.1 85 LegendMM 13 5 LegendMM 100.33     LegendNANA
17:00 10.8 7.6 81 LegendMM 13 5 LegendMM 100.33     LegendNANA
18:00 10.4 7.8 84 LegendMM 11 5 LegendMM 100.34     LegendNANA
19:00 9.8 8.6 92 LegendMM 10 4 LegendMM 100.36     LegendNANA
20:00 8.7 8.7 100 LegendMM 2 4 LegendMM 100.41     LegendNANA
21:00 8.3 8.3 100 LegendMM   0 LegendMM 100.45     LegendNANA
22:00 8.3 8.3 100 LegendMM 11 2 LegendMM 100.47     LegendNANA
23:00 8.3 8.3 100 LegendMM 29 3 LegendMM 100.49     LegendNANA

Notes on Data Quality.

Legend

  • E = Estimated
  • M = Missing
  • NA = Not Available*
  • [empty] = Indicates an unobserved value
Date modified: